F5MAP-5 Weather Reports


Display with metric or nautical units.
time (UTC)temp
F
wind
direction
speed
MPH
gust
MPH
rain 1hr
in
rain 24hr
in
rain mn
in
humidity
%
barometer
mb
20260903220209 69 243 3.0 5.0 0.00 0.00 0.00 64 1021.7
20260903215209 69 273 5.0 9.0 0.00 0.00 0.00 64 1021.6
20260903214209 69 258 5.0 8.0 0.00 0.00 0.00 64 1021.7
20260903213209 70 235 2.0 4.0 0.00 0.00 0.00 64 1021.8
20260903212209 70 258 3.0 4.0 0.00 0.00 0.00 65 1021.8
20260903211209 70 238 2.0 5.0 0.00 0.00 0.00 65 1021.9
20260903210209 70 230 3.0 5.0 0.00 0.00 0.00 65 1021.8
20260903205209 71 225 3.0 5.0 0.00 0.00 0.00 65 1021.8
20260903204210 71 225 3.0 5.0 0.00 0.00 0.00 65 1022.0
20260903203209 71 203 2.0 4.0 0.00 0.00 0.00 63 1021.9
20260903202209 72 203 2.0 3.0 0.00 0.00 0.00 62 1021.8
20260903201209 72 224 3.0 4.0 0.00 0.00 0.00 61 1021.7
20260903200209 73 219 3.0 5.0 0.00 0.00 0.00 59 1021.8
20260903195209 74 221 2.0 4.0 0.00 0.00 0.00 58 1021.8
20260903194209 74 205 2.0 5.0 0.00 0.00 0.00 56 1021.7
20260903193209 74 215 2.0 4.0 0.00 0.00 0.00 55 1021.8
20260903192209 75 265 2.0 9.0 0.00 0.00 0.00 54 1021.7
20260903191209 75 272 4.0 9.0 0.00 0.00 0.00 54 1021.6
20260903190209 76 246 0.0 6.0 0.00 0.00 0.00 52 1021.5
20260903185210 76 267 3.0 7.0 0.00 0.00 0.00 51 1021.5
20260902221212 64 16 0.0 0.0 0.00 0.00 0.00 73 1021.9